Regional Weather Roundup
Issued by NWS

Home | Current Version | Previous Version | Graphics & Text | Print | Product List | Glossary On
Versions: 1 2 3 4 5 6 7 8 9 10 11 12 13 14 15 16 17 18 19 20 21 22 23 24 25 26 27 28 29 30 31 32 33 34 35 36 37 38 39 40 41 42 43 44 45 46 47 48 49 50
000
ASUS43 KLOT 041200
RWRIL

ILLINOIS REGIONAL WEATHER ROUNDUP
NATIONAL WEATHER SERVICE CHICAGO/ROMEOVILLE IL
700 AM CDT TUE AUG 04 2015

NOTE: "FAIR" INDICATES FEW OR NO CLOUDS BELOW 12,000 FEET WITH NO
SIGNIFICANT WEATHER AND/OR OBSTRUCTIONS TO VISIBILITY.

* THESE STATIONS ARE NOT UNDER NWS QUALITY CONTROL. THEY ALSO MAY NOT
  REPORT WEATHER SUCH AS PRECIPITATION OR FOG.

ILZ001-002-007-009-015-016-024-041300-
NORTHWEST ILLINOIS

CITY           SKY/WX    TMP DP  RH WIND       PRES   REMARKS
MOLINE         CLEAR     60  57  89 SW3       29.99R
6HR MIN TEMP:  57; 6HR MAX TEMP:  63;

STERLING*      SUNNY     61  55  82 W3        29.96R
$$

ILZ003-004-008-010-011-017-018-041300-
NORTH CENTRAL ILLINOIS

CITY           SKY/WX    TMP DP  RH WIND       PRES   REMARKS
ROCKFORD       MOSUNNY   58  54  86 S3        29.98R
6HR MIN TEMP:  56; 6HR MAX TEMP:  63;

$$

ILZ005-006-012>014-019>023-041300-
NORTHEAST ILLINOIS

CITY           SKY/WX    TMP DP  RH WIND       PRES   REMARKS
CHICAGO-OHARE  MOSUNNY   63  57  81 W5        29.95R
6HR MIN TEMP:  61; 6HR MAX TEMP:  67;

CHICAGO-MIDWAY MOSUNNY   66  57  72 SW3       29.95R
6HR MIN TEMP:  64; 6HR MAX TEMP:  71;

AURORA         SUNNY     57  54  89 CALM      29.97R
6HR MIN TEMP:  54; 6HR MAX TEMP:  59;

WAUKEGAN       SUNNY     63  56  78 VRB3      29.94R
6HR MIN TEMP:  57; 6HR MAX TEMP:  63;

DUPAGE AIRPORT SUNNY     60  56  86 CALM      29.96R
6HR MIN TEMP:  57; 6HR MAX TEMP:  65;

WHEELING       SUNNY     64  54  69 CALM      29.97R
6HR MIN TEMP:  61; 6HR MAX TEMP:  67;

NORTHERLY ISL    N/A     69  55  60 W6          N/A
$$

LMZ740>746-041300-
SOUTHERN LAKE MICHIGAN

STATION/POSITION SKY/WX   TEMP    WIND        PRES    VSBY  WAVE
                          AIR SEA DIR/SP/G                  HT/PER
                          (F)     (DEG/KT/KT) (MB)    (MI)  (FT/S)
HARRISON CRIB              68     270/  8/  9   N/A
BURNHAM HARBOR             68     270/  6/  8   N/A
CALUMET HARBOR             65     240/  3/  4   N/A
BURNS HARBOR               64     190/  6/  7 1014.6R
MICHIGAN CITY              63     150/  4/  4   N/A
MICHIGAN CITY 6N           72 73  300/  6/  8   N/A           2/ 4
ST. JOSEPH                 71 73  350/  6/  8   N/A           2/ 3
$$

ILZ025>027-034>036-040-047-049-050-058-095>099-041300-
WEST-CENTRAL ILLINOIS

CITY           SKY/WX    TMP DP  RH WIND       PRES   REMARKS
QUINCY         CLOUDY    68  61  78 CALM      29.99S
MACOMB*        PTCLDY    60  58  96 CALM      30.01S
$$

ILZ028>032-037-038-041>044-048-051>054-059>061-041300-
CENTRAL ILLINOIS

CITY           SKY/WX    TMP DP  RH WIND       PRES   REMARKS
DECATUR        MOSUNNY   66  62  87 SW3       30.00R
PEORIA         SUNNY     65  58  78 CALM      29.99R
6HR MIN TEMP:  62; 6HR MAX TEMP:  67;

SPRINGFIELD    PTSUNNY   65  61  87 CALM      30.00R
6HR MIN TEMP:  60; 6HR MAX TEMP:  70;

TAYLORVILLE    NOT AVBL
$$

ILZ033-039-045-046-055>057-062-063-041300-
EAST-CENTRAL ILLINOIS

CITY           SKY/WX    TMP DP  RH WIND       PRES   REMARKS
CHAMPAIGN      SUNNY     61  58  90 CALM      30.00R
MATTOON        MOSUNNY   68  62  81 CALM      29.99R
$$

ILZ079-100>102-041300-
SOUTHWEST ILLINOIS

CITY           SKY/WX    TMP DP  RH WIND       PRES   REMARKS
ALTON          CLOUDY    70  64  83 VRB5      29.99S
BELLEVILLE     CLOUDY    73  72  99 NE3       29.97R
CAHOKIA*       MOCLDY    74  69  85 NE3       29.98R
$$

ILZ064>066-069>071-074>076-080>082-084>086-088>090-092>094-041300-
SOUTH-CENTRAL ILLINOIS

CITY           SKY/WX    TMP DP  RH WIND       PRES   REMARKS
CARBONDALE     PTCLDY    73  71  93 CALM      29.97R FOG
6HR MIN TEMP:  72; 6HR MAX TEMP:  75;

MARION         MOSUNNY   73  70  88 SE6       29.98R
MT. VERNON     CLOUDY    72  63  73 CALM      29.99S
SALEM*         CLOUDY    71  67  88 CALM      29.99S
$$

ILZ067-068-072-073-078-083-087-091-041300-
SOUTHEAST ILLINOIS

CITY           SKY/WX    TMP DP  RH WIND       PRES   REMARKS
LAWRENCEVILLE  PTSUNNY   72  65  78 CALM      29.99R
HARRISBURG*    PTSUNNY   71  71 100 CALM      29.99R
ROBINSON*      PTSUNNY   67  66  95 CALM      30.00R
CARMI*         CLOUDY    71  67  87 N5        29.98R
$$

ABBREVIATIONS USED IN REMARKS
   TC - TEMPERATURE IN CELSIUS
  WCI - WIND CHILL INDEX
   HX - HEAT INDEX
  VSB - VISIBILITY
$$




USA.gov is the U.S. government's official web portal to all federal, state and local government web resources and services.